This is the latest recevied weather packets stored in our database for station/object K3SV. If no packets are shown the sender has not sent any weather packets the latest 10 day(s).
| Time | Temp. | Humidity | Pressure | Rain* | Wind** | Luminosity | Snow |
|---|---|---|---|---|---|---|---|
| 1777383846 | 22.78° C | 88% | 1020.4 hPa | 0 mm | - | 222 W/m² | - |
| 1777383541 | 22.22° C | 88% | 1020.3 hPa | 0 mm | - | 280 W/m² | - |
| 1777383238 | 21.67° C | 90% | 1020.4 hPa | 0 mm | - | 208 W/m² | - |
| 1777382936 | 21.67° C | 91% | 1020.1 hPa | 0 mm | - | 189 W/m² | - |
| 1777382636 | 21.67° C | 91% | 1020.2 hPa | 0 mm | - | 197 W/m² | - |
| 1777382332 | 21.67° C | 92% | 1019.9 hPa | 0 mm | - | 174 W/m² | - |
| 1777382029 | 21.11° C | 93% | 1020.2 hPa | 0 mm | - | 146 W/m² | - |
| 1777381724 | 20.56° C | 93% | 1019.9 hPa | 0 mm | - | 122 W/m² | - |
| 1777381419 | 20.56° C | 93% | 1020 hPa | 0 mm | - | 105 W/m² | - |
| 1777381116 | 20.56° C | 93% | 1020.1 hPa | 0 mm | - | 106 W/m² | - |
| 1777380812 | 20.56° C | 94% | 1020.2 hPa | 0 mm | - | 104 W/m² | - |
| 1777380510 | 20.56° C | 94% | 1020.2 hPa | 0 mm | - | 110 W/m² | - |
| 1777380206 | 20.56° C | 95% | 1020.3 hPa | 0 mm | - | 117 W/m² | - |
| 1777379902 | 20° C | 95% | 1020.1 hPa | 0 mm | - | 91 W/m² | - |
| 1777379598 | 20° C | 95% | 1020.2 hPa | 0 mm | - | 85 W/m² | - |
| 1777379295 | 20° C | 96% | 1019.9 hPa | 0 mm | - | 80 W/m² | - |
| 1777378994 | 20° C | 96% | 1019.8 hPa | 0 mm | - | 78 W/m² | - |
| 1777378690 | 19.44° C | 96% | 1019.8 hPa | 0 mm | - | 67 W/m² | - |
| 1777378387 | 20° C | 96% | 1019.5 hPa | 0 mm | - | 54 W/m² | - |
| 1777378081 | 20° C | 96% | 1019.7 hPa | 0 mm | - | 45 W/m² | - |
| 1777377776 | 20° C | 96% | 1019.5 hPa | 0 mm | - | 60 W/m² | - |
| 1777377470 | 20° C | 96% | 1019.5 hPa | 0 mm | - | 42 W/m² | - |
| 1777377166 | 20° C | 96% | 1019.4 hPa | 0 mm | - | 38 W/m² | - |
| 1777376863 | 19.44° C | 96% | 1019.3 hPa | 0 mm | - | 33 W/m² | - |
| 1777376555 | 19.44° C | 96% | 1019.3 hPa | 0 mm | - | 34 W/m² | - |
* Rain latest hour (hover to see other rain measurements)
** Current wind speed in m/s (hover to see current wind gust speed)